Location: Makanda
(37.6176°N, 89.2090°W)
Time: 20:46:24
(UTC+00:00)

Cosmos 2026 Rocket - Pass Details

Date: 23 September 2019
Orbit: 939 x 1001 km, 82.9° (Epoch: 18 October)

Event Time Altitude Azimuth Distance (km) Brightness Sun altitude
Exits shadow 09:54:07 42° 270° (W) 1,377 4.3 -22.5°
Maximum altitude 09:54:36 43° 282° (WNW) 1,365 4.3 -22.4°
Drops below altitude 10° 10:00:38 10° 353° (N) 2,774 6.5 -21.2°
Sets 10:03:20 0° 0° (N) 3,730 7.3 -20.7°
